STARLINK-1210, 45207

Orbit data source: Space-Track

STARLINK-1210, 45207 is a payload satellite owned by SpaceX/Seattle (US) in LEO that was launched on Mon, 17 Feb 2020 UTC via an FALCON 9 launch vehicle from the Air Force Eastern Test Range (AFETR). Payload-class satellites include a variety of spacecraft equipped with specific instruments for various scientific and technological missions. These include communications satellites like Starlink; space stations such as the ISS; scientific satellites like the Hubble; Earth observation satellites from companies like Planet Labs, Umbra, and HawkEye 360; GPS; miniature CubeSats for education and research; and military/defense satellites.

Loading next visibility...
Identifier
45207, 2020-012AF
Orbit
LEO
Last TLE update
11 hours ago
Origin
Manufacturer
SpaceX/Seattle
Mission
Partially operational Commercial Communications
Bus & Motor
STARLINK, Unknown motor
Mass
260 kg wet, ~248 kg dry
Launch date (UTC)
2020-02-17 (5 years ago)
Launch vehicle
FALCON 9
Launch site
Air Force Eastern Test Range (AFETR)
Object type
Payload
Rocket body
Debris
Shape & HBR
Box + 1 Pan, 8.86 m
Radar Cross Section
13.562 m², Large (>1 m²)

Expand to show TLE details & history

TLE from 11 hours ago
0 STARLINK-1210
1 45207U 20012AF  25129.42175413  .00084600  00000-0  29783-2 0  9998
2 45207  53.0337 294.4747 0010173 179.4868 180.6142 15.28562906288579
Epoch: 2025-05-09T10:07Z
Definitive object data (Epoch: 2025-05-09T10:07:19.556Z)
Latitude
-0.00008°
Longitude
-84.83498°
Altitude
487.969 km
Speed
7.618 km/s
True Right ascension
19h 37m 53s
True Declination
0° 00' 00"
Sunlit
Object was in daylight at TLE epoch
Visualization TLE readout
Latitude
3.65575°
Longitude
-84.22533°
Altitude
487.315 km
Speed
7.619 km/s
Apparent Right ascension
18h 41m 42s
Apparent Declination
-17° 58' 09"
Sunlit
Object is in daylight
Visualization observer readout
Local Sidereal Time
05:18:49
Azimuth
314.799° NW
Elevation
-61.681°
Doppler factor
1
Orbital elements
Apogee altitude
487.361 km
Perigee altitude
473.407 km
Semi-major axis
6,858.521 km
Eccentricity
0.0010173
Inclination
53.0337°
RAAN
294.4747°
Arg. of periapsis
179.4868°
True anomaly
180.61295°
Mean anomaly
180.6142°
Eccentric anomaly
180.61358°
Mean motion
3.82118 °/min
BSTAR
0.0029783
Orbital period
94.21 mins
Loading maneuver chart data...
Loading SW <> Apogee altitude chart data...

STARLINK-1210 Visibility forecast

Observer location: undefined°, undefined°

Span
Click to sort rows by Start time (UTC) header in descending order
Start Az.
Max El. time (UTC)
Max El. Az.
Max El.
End time (UTC)
End Az.
4 mins2025-05-09 21:39:34.227Z273.607° WNW2025-05-09 21:41:34.227Z230.64° WSW21.971°2025-05-09 21:43:34.227Z186.755° SSW
5 mins2025-05-10 12:58:34.227Z187.059° SSW2025-05-10 13:00:34.227Z125.122° SE31.49°2025-05-10 13:03:34.227Z66.252° ENE
5 mins2025-05-10 14:36:34.227Z283.287° WNW2025-05-10 14:38:34.227Z334.756° NNW26.314°2025-05-10 14:41:34.227Z32.078° NE
5 mins2025-05-10 19:33:34.227Z334.972° NNW2025-05-10 19:35:34.227Z28.924° NE31.039°2025-05-10 19:38:34.227Z98.135° ESE
|